www.pogodaiklimat.ru

ПОГОДА в Бишопе, CA

  • Прогноз погоды в Бишопе
  • Монитор погоды в Бишопе
  • Климат в Бишопе

АРХИВ ПОГОДЫ в Бишопе

Время (UTC), дата Ветер
(напр.,м/с)
 
Видим.   Явления Облачность Т
(С)
Тd
(С)
f
(%)
Тe
(С)
Тes
(С)
Комфортность

P
(гПа)

Po
(гПа)
Тmin
(С)
Tmax
(С)
R
(мм)
SD
(см)
21:56 23.06   16 км    ясно  +31.7  -2.8  11  +28  +50  жарко  1010.7  872.7         
22:56 23.06 ЮВ  16 км    ясно  +32.2  -1.7  11  +29  +37  жарко  1010.3  872.1  +26.1  +32.8     
23:56 23.06 нст  16 км    ясно  +31.7  -1.1  12  +28  +35  жарко  1009.8  871.8         
00:56 24.06 Ю  16 км    ясно  +30.6  +0.6  15  +28  +30  жарко  1009.2  871.6         
01:56 24.06 Ю  16 км    ясно  +28.3  +2.2  19  +26  +28  жарко  1009.2  871.8         
02:56 24.06 С  16 км    ясно  +22.8  +3.9  29  +23  +23  комфорт  1010.1  872.4         
03:56 24.06 СЗ  16 км    ясно  +23.9  +5.6  31  +24  +24  комфорт  1010.3  873.0         
04:56 24.06 СЗ  16 км    ясно  +23.3  +6.1  33  +24  +24  комфорт  1010.4  873.0  +22.8  +32.2     
05:56 24.06 СЗ  16 км    ясно  +20.6  +6.1  39  +22  +22  комфорт  1010.6  873.3         
06:56 24.06 З  16 км    ясно  +19.4  +6.1  42  +20  +20    1010.6  873.0         
07:56 24.06 З  16 км    ясно  +15.6  +6.1  53  +15  +15    1011.0  873.3         
08:56 24.06   16 км    ясно  +17.2  +6.1  48  +17  +17    1010.8  873.3         
09:56 24.06 СЗ  16 км    ясно  +13.3  +6.1  62  +12  +12    1011.1  873.3         
10:56 24.06 СЗ  16 км    ясно  +11.7  +6.1  68  +10  +10    1011.3  873.3  +11.1  +23.9     
11:56 24.06 СЗ  16 км    ясно  +11.1  +5.6  69  +10  +10    1011.4  873.3         
12:56 24.06 С  16 км    ясно  +16.1  +5.6  50  +17  +17    1011.3  873.6         
13:56 24.06 СЗ  16 км    ясно  +18.9  +6.7  45  +20  +22    1011.4  873.6         
14:56 24.06 З  16 км    ясно  +23.3  +6.7  34  +24  +29  комфорт  1011.1  873.6         
15:56 24.06 СВ  16 км    ясно  +27.2  +5.0  24  +26  +34  жарко  1010.1  873.0         
16:56 24.06 З  16 км    ясно  +28.3  +3.9  21  +27  +39  жарко  1009.3  872.4  +10.6  +28.3     
17:56 24.06 ЮВ  4
{8} 
16 км    ясно  +31.1  +3.9  18  +29  +38  жарко  1008.4  871.6         
18:56 24.06 ЮВ  6
{8} 
16 км    ясно  +32.2  +3.3  16  +30  +36  жарко  1007.6  871.0         
19:56 24.06 нст  3
{7} 
16 км    ясно  +33.3  +1.1  13  +30  +46  жарко  1007.1  870.1         
20:56 24.06 нст  16 км    ясно  +33.3  +0.6  12  +30  +51  опасность
солнечного
удара 
1006.0  869.5         
21:56 24.06 нст  16 км    ясно  +34.4  +0.6  12  +31  +45  жарко  1005.5  868.6         
22:56 24.06 З  16 км    ясно  +34.4  -0.6  11  +31  +38  жарко  1005.1  868.4  +28.3  +35.0     
23:56 24.06 З  16 км    ясно  +32.2  -0.6  12  +29  +34  жарко  1005.1  868.1         
00:56 25.06 нст  16 км    ясно  +31.1  -0.6  13  +28  +31  жарко  1004.6  868.1         
01:56 25.06 С  4
{9} 
16 км    ясно  +29.4  0.0  15  +27  +27  жарко  1004.8  868.4         
02:56 25.06 СЗ  16 км    ясно  +26.7  +0.6  18  +25  +25  комфорт  1005.0  868.6         
03:56 25.06 С  16 км    ясно  +25.0  +1.1  21  +24  +24  комфорт  1005.6  869.2         
04:56 25.06 С  16 км    ясно  +22.2  +2.2  27  +22  +22  комфорт  1005.7  869.2  +22.2  +34.4     
05:56 25.06 СЗ  16 км    ясно  +22.8  +1.1  24  +22  +22  комфорт  1005.6  869.5         
06:56 25.06   16 км    ясно  +20.6  +1.7  28  +21  +21  комфорт  1006.1  869.8         
07:56 25.06 СВ  16 км    ясно  +17.8  +2.2  35  +18  +18    1006.2  869.8         
08:56 25.06 З  16 км    ясно  +20.0  +0.6  27  +20  +20    1005.9  869.5         
09:56 25.06 СВ  16 км    ясно  +16.7  +2.8  39  +17  +17    1006.2  869.8         
10:56 25.06 З  16 км    ясно  +16.7  +2.8  39  +16  +16    1006.2  869.5  +15.6  +23.3     
11:56 25.06 С  16 км    ясно  +13.3  +3.9  53  +12  +12    1007.0  869.8         
12:56 25.06 С  16 км    ясно  +15.0  +5.6  53  +15  +15    1007.1  870.1         
13:56 25.06 СЗ  16 км    ясно  +20.6  +4.4  34  +22  +24  комфорт  1007.3  870.4         
14:56 25.06   16 км    ясно  +24.4  +2.8  24  +24  +30  комфорт  1007.1  870.4         
15:56 25.06 нст  16 км    ясно  +27.8  -0.6  16  +25  +33  комфорт  1006.4  869.8         
16:56 25.06 нст  16 км    ясно  +28.9  -3.3  12  +26  +40  жарко  1006.2  869.5  +12.8  +30.0     
17:56 25.06 С  16 км    ясно  +30.6  0.0  14  +28  +43  жарко  1005.3  868.9         
18:56 25.06 Ю  16 км    ясно  +30.6  +1.7  16  +28  +43  жарко  1004.7  868.4         
19:56 25.06 Ю  16 км    ясно  +31.1  +0.6  14  +28  +36  жарко  1004.1  867.8         
20:56 25.06 ЮВ  8
{11} 
16 км    ясно  +33.3  0.0  12  +30  +32  жарко  1002.8  866.9         

 

Местоположение метеостанции Bishop Airport: широта 37.3711 долгота -118.3581 высота над уровнем моря 1256 м.

В архиве по умолчанию представлена погода в Бишопе за последние 1-2 суток. Обновление информации о фактической погоде в базе происходит ежечасно! Архивные данные за месяц целиком и за предыдущие месяцы Вы можете получить, выбрав интересующий диапазон дат из раскрывающегося списка и нажав кнопку "Ввод!".

Внимание! Архив погоды МЕТАР в базе сайта хранится не более 60 дней. Нет смысла пытаться выбрать более раннюю дату.

Внимание! Время в таблицах - всемирное. Для получения местного времени необходимо прибавить поправку, которая в Бишопе равна -8 ч.

Ветер - указаны скорость ветра в м/с и направление, откуда дует ветер: С - северный, СВ - северо-восточный, В - восточный, ЮВ - юго-восточный, Ю - южный, ЮЗ - юго-западный, З - западный, СЗ - северо-западный.
Видимость - горизонтальная дальность видимости в метрах или километрах. При видимости от 1 до 10 км при отсутствии осадков обычно наблюдается дымка, при ухудшении видимости до 1 км и менее - туман. В сухую погоду видимость может ухудшаться дымом, пылью или мглою.
Атмосферные явления - указаны явления, наблюдавшиеся в указанный момент времени.
Облачность - указаны через наклонную черту верхняя и нижняя облачность в баллах и высота нижней границы облаков в метрах. Внимание: облачность, как и прочие метеорологические величины в США измеряются автоматическими метеостанциями. Указанные значения в баллах носят условный характер и показывают процент времени, в течение которого, в среднем, лазерный луч высотомера отражался от облаков обратно.
T - Температура воздуха - температура, измеренная на высоте 2 м над землей.
Td - Температура точки росы - температура, при понижении до которой содержащийся в воздухе водяной пар достигнет насыщения.
f - Относительная влажность воздуха - влажноcть воздуха, измеренная на высоте 2 м над землей.
Te - Эффективная температура - температура, которую ощущает одетый по сезону человек в тени. Характеристика душности погоды. При расчете учитывается влияние влажности воздуха и скорости ветра на теплоощущения человека.
Tes - Эффективная температура на солнце - температура, которую ощущает человек, с поправкой на солнечный нагрев. Характеристика знойности погоды. Зависит от высоты солнца над горизонтом, облачности и скорости ветра. Ночью, в пасмурную погоду, а также при ветре 12 м/с и более поправка равна нулю.
P - Атмосферное давление - приведенное к уровню моря атмосферное давление.
Po - Атмосферное давление - измеренное на уровне метеостанции атмосферное давление.
Tmin - Минимальная температура - минимум температуры воздуха на высоте 2 м над землей.
Tmax - Максимальная температура - максимум температуры воздуха на высоте 2 м над землей.
R - Количество осадков - Количество выпавших осадков за 3 или 6 часов, мм.
SD - Снежный покров - Высота снежного покрова, см.